Torna al catalogo

STARLINK-5053

AttivoComunicazioniVLEO
NORAD 53913·PAYLOAD·🇺🇸 United States

Lanciato Sep 24, 2022 da Cape Canaveral Space Force Station

Loading…

Prossimi Passaggi (prossime 24 ore)

TLE

AggiornatoSource: CelesTrak SupGP

Epoca: Sep 14, 2026, 21:38 UTC

1 53913C 22119AD  26257.90187500 -.00017519  00000+0 -10985-2 0  2574
2 53913  53.1586 184.0700 0001626  88.9314 128.7995 15.08847420    10

Traccia STARLINK-5053 in tempo reale con AllMySat

Download on the App Store